Location: Unspecified
(51.6250°N, 0.8230°E)
Time: 23:10:11
(UTC+00:00)

Intercosmos 25 - Pass Details

Date: 02 February 2021
Orbit: 438 x 2877 km, 82.6° (Epoch: 25 February)

Event Time Altitude Azimuth Distance (km) Brightness Sun altitude
Rises 17:09:45 0° 243° (WSW) 5,521 11.3 -3.9°
Reaches altitude 10° 17:15:12 10° 260° (W) 4,014 9.4 -4.7°
Maximum altitude 17:21:04 18° 299° (WNW) 2,846 7.5 -5.5°
Drops below altitude 10° 17:25:34 10° 340° (NNW) 2,899 7.0 -6.2°
Sets 17:28:40 0° 1° (N) 3,498 7.2 -6.7°
